Location: P�rn�nmaa
(61.1833°N, 23.0000°E)
Time: 19:03:29
(UTC+00:00)

Envisat - Pass Details

Date: 08 December 2019
Orbit: 764 x 766 km, 98.1° (Epoch: 17 January)

Event Time Altitude Azimuth Distance (km) Brightness Sun altitude
Rises 15:34:16 0° 152° (SSE) 3,229 6.2 -14.5°
Reaches altitude 10° 15:36:34 10° 151° (SSE) 2,307 5.4 -14.8°
Maximum altitude 15:41:38 73° 68° (ENE) 810 2.9 -15.4°
Drops below altitude 10° 15:46:44 10° 344° (NNW) 2,321 5.5 -15.9°
Sets 15:49:03 0° 343° (NNW) 3,251 6.2 -16.2°
